This demonstration page uses our WeatherBlox Daily Observations layout. Learn more.

Left ArrowRight Arrow

36.17497, -115.13722

Hourly Observations for October 31, 2019

Temp ( °F °C ) Dew Point ( °F °C ) Humidity (%) Winds ( mph kmh ) Pressure ( in mb ) Visibility ( mi km ) Precip ( " mm )
12:53 am 00:53 Clear 37 2.8 6 -14.4 27 27 NW 5 7 30.48 1032 10 16.0934 N/A
1:53 am 01:53 Clear 37 2.8 7 -13.9 28 28 WNW 7 11 30.48 1032 10 16.0934 N/A
2:53 am 02:53 Clear 37 2.8 5 -15 26 26 W 6 9 30.47 1032 10 16.0934 N/A
3:53 am 03:53 Clear 36 2.2 5 -15 27 27 SW 3 6 30.47 1032 10 16.0934 N/A
4:53 am 04:53 Clear 34 1.1 5 -15 29 29 WNW 3 6 30.47 1032 10 16.0934 N/A
5:53 am 05:53 Clear 34 1.1 6 -14.4 31 31 WNW 6 9 30.46 1032 10 16.0934 N/A
6:53 am 06:53 Clear 35 1.7 2 -16.7 24 24 WNW 7 11 30.46 1032 10 16.0934 N/A
7:53 am 07:53 Sunny 40 4.4 -5 -20.6 14 14 WNW 3 6 30.47 1032 10 16.0934 N/A
8:53 am 08:53 Sunny 43 6.1 -4 -20 13 13 W 8 13 30.47 1032 10 16.0934 N/A
9:53 am 09:53 Sunny 48 8.9 -5 -20.6 10 10 VRB 3 6 30.46 1032 10 16.0934 N/A
10:53 am 10:53 Sunny 50 10 -6 -21.1 9 9 WNW 5 7 30.44 1031 10 16.0934 N/A
11:53 am 11:53 Sunny 52 11.1 -6 -21.1 9 9 N N/A 30.41 1030 10 16.0934 N/A
12:53 pm 12:53 Sunny 55 12.8 -5 -20.6 8 8 N N/A 30.37 1028 10 16.0934 N/A
1:53 pm 13:53 Sunny 57 13.9 -6 -21.1 7 7 SW 3 6 30.33 1027 10 16.0934 N/A
2:53 pm 14:53 Sunny 59 15 -6 -21.1 7 7 N N/A 30.3 1026 10 16.0934 N/A
3:53 pm 15:53 Sunny 59 15 -6 -21.1 7 7 N N/A 30.29 1026 10 16.0934 N/A
4:53 pm 16:53 Sunny 59 15 -6 -21.1 7 7 ESE 3 6 30.27 1025 10 16.0934 N/A
5:53 pm 17:53 Clear 58 14.4 -5 -20.6 7 7 S 3 6 30.27 1025 10 16.0934 N/A
6:53 pm 18:53 Clear 55 12.8 1 -17.2 11 11 WSW 5 7 30.27 1025 10 16.0934 N/A
7:53 pm 19:53 Clear 51 10.6 6 -14.4 16 16 W 5 7 30.27 1025 10 16.0934 N/A
8:53 pm 20:53 Clear 49 9.4 7 -13.9 18 18 WNW 6 9 30.27 1025 10 16.0934 N/A
9:53 pm 21:53 Clear 46 7.8 8 -13.3 21 21 WNW 6 9 30.28 1026 10 16.0934 N/A
10:53 pm 22:53 Clear 44 6.7 8 -13.3 23 23 W 5 7 30.28 1025 10 16.0934 N/A
11:53 pm 23:53 Clear 44 6.7 8 -13.3 23 23 W 5 7 30.27 1025 10 16.0934 N/A

Powered by AerisWeather